DEEMH EDDL-EDDN

Flight info

Callsign DEEMH
Flight time 1h 18m
Altitude 24000
Route NUDGO6T NUDGO Z858 ESADU P12 WRB Z190 VELIS T194 DODAS DODAS1V
Aircraft B58T/L-SDFGRY/C

Departure

Time 2026-05-04 17:19
Airport Düsseldorf Airport (EDDL)

Arrival

Time 2026-05-04 18:38
Airport Nuremberg Airport (EDDN)
Time Latitude Longitude Altitude Speed Heading
2026-05-04 16:41 51.27510 6.75255 112 ft 0 kts 57°
2026-05-04 17:09 51.27511 6.75255 112 ft 0 kts 57°
2026-05-04 17:10 51.27592 6.75189 112 ft 12 kts 345°
2026-05-04 17:10 51.27846 6.75429 112 ft 20 kts 54°
2026-05-04 17:11 51.27938 6.75618 112 ft 23 kts 53°
2026-05-04 17:11 51.28033 6.75819 112 ft 22 kts 52°
2026-05-04 17:11 51.28197 6.76161 112 ft 17 kts 52°
2026-05-04 17:12 51.28270 6.76315 112 ft 17 kts 52°
2026-05-04 17:12 51.28414 6.76618 112 ft 19 kts 52°
2026-05-04 17:13 51.28645 6.77100 112 ft 17 kts 56°
2026-05-04 17:14 51.28738 6.77296 112 ft 4 kts 53°
2026-05-04 17:14 51.28779 6.77383 112 ft 14 kts 53°
2026-05-04 17:14 51.28930 6.77696 112 ft 21 kts 54°
2026-05-04 17:15 51.29020 6.77888 112 ft 19 kts 53°
2026-05-04 17:15 51.29153 6.78167 112 ft 14 kts 49°
2026-05-04 17:16 51.29266 6.78181 113 ft 0 kts 321°
2026-05-04 17:17 51.29292 6.77993 113 ft 0 kts 235°
2026-05-04 17:18 51.29286 6.77979 113 ft 8 kts 234°
2026-05-04 17:19 51.28617 6.76533 419 ft 120 kts 231°
2026-05-04 17:19 51.27615 6.74177 1425 ft 133 kts 231°
2026-05-04 17:20 51.26467 6.71838 2379 ft 136 kts 228°
2026-05-04 17:20 51.25297 6.69346 3366 ft 134 kts 229°
2026-05-04 17:20 51.24734 6.68198 3944 ft 129 kts 230°
2026-05-04 17:21 51.23658 6.65930 5030 ft 130 kts 230°
2026-05-04 17:21 51.22455 6.63746 6046 ft 132 kts 204°
2026-05-04 17:22 51.21559 6.63472 6561 ft 133 kts 175°
2026-05-04 17:22 51.20638 6.63629 7048 ft 133 kts 175°
2026-05-04 17:23 51.17856 6.64063 8535 ft 135 kts 174°
2026-05-04 17:23 51.16911 6.64216 8977 ft 142 kts 173°
2026-05-04 17:23 51.14771 6.64587 9549 ft 165 kts 167°
2026-05-04 17:24 51.13747 6.65494 9731 ft 180 kts 140°
2026-05-04 17:24 51.13139 6.72008 9739 ft 220 kts 90°
2026-05-04 17:25 51.13245 6.74355 10133 ft 204 kts 90°
2026-05-04 17:25 51.13406 6.78676 10910 ft 192 kts 91°
2026-05-04 17:26 51.13563 6.82894 11640 ft 189 kts 91°
2026-05-04 17:26 51.13793 6.89101 12746 ft 185 kts 90°
2026-05-04 17:27 51.13942 6.93187 13528 ft 185 kts 90°
2026-05-04 17:27 51.14090 6.97277 14260 ft 185 kts 90°
2026-05-04 17:28 51.14237 7.01391 14982 ft 188 kts 90°
2026-05-04 17:29 51.14461 7.07691 16104 ft 190 kts 91°
2026-05-04 17:29 51.14763 7.13981 17237 ft 195 kts 79°
2026-05-04 17:30 51.16042 7.20242 18395 ft 201 kts 78°
2026-05-04 17:31 51.16848 7.24561 19059 ft 205 kts 77°
2026-05-04 17:31 51.18088 7.31179 20073 ft 210 kts 77°
2026-05-04 17:32 51.18927 7.35665 20768 ft 211 kts 77°
2026-05-04 17:33 51.20186 7.42432 21697 ft 213 kts 77°
2026-05-04 17:33 51.20611 7.44687 22006 ft 212 kts 76°
2026-05-04 17:34 51.21847 7.51393 22944 ft 211 kts 76°
2026-05-04 17:34 51.22270 7.53680 23171 ft 218 kts 76°
2026-05-04 17:35 51.23590 7.60840 23721 ft 233 kts 76°
2026-05-04 17:35 51.24536 7.65989 23741 ft 249 kts 76°
2026-05-04 17:35 51.25030 7.68684 23740 ft 256 kts 76°
2026-05-04 17:36 51.25535 7.71437 23738 ft 261 kts 76°
2026-05-04 17:36 51.26046 7.74233 23737 ft 264 kts 76°
2026-05-04 17:36 51.26564 7.77066 23740 ft 267 kts 76°
2026-05-04 17:36 51.27085 7.79925 23737 ft 269 kts 76°
2026-05-04 17:37 51.27609 7.82806 23735 ft 271 kts 76°
2026-05-04 17:37 51.28135 7.85696 23734 ft 271 kts 76°
2026-05-04 17:37 51.28661 7.88600 23732 ft 272 kts 76°
2026-05-04 17:37 51.29187 7.91504 23731 ft 272 kts 76°
2026-05-04 17:38 51.29713 7.94414 23733 ft 273 kts 76°
2026-05-04 17:38 51.30239 7.97325 23730 ft 273 kts 76°
2026-05-04 17:38 51.30766 8.00249 23731 ft 273 kts 76°
2026-05-04 17:38 51.31291 8.03166 23733 ft 273 kts 76°
2026-05-04 17:39 51.32339 8.09009 23730 ft 273 kts 76°
2026-05-04 17:39 51.32863 8.11932 23729 ft 273 kts 76°
2026-05-04 17:39 51.33386 8.14856 23719 ft 273 kts 76°
2026-05-04 17:40 51.33907 8.17779 23716 ft 274 kts 76°
2026-05-04 17:40 51.34429 8.20708 23714 ft 274 kts 76°
2026-05-04 17:40 51.34951 8.23638 23714 ft 274 kts 76°
2026-05-04 17:40 51.35693 8.26452 23717 ft 275 kts 63°
2026-05-04 17:41 51.36575 8.29131 23715 ft 275 kts 63°
2026-05-04 17:41 51.37459 8.31893 23715 ft 275 kts 64°
2026-05-04 17:41 51.38331 8.34620 23715 ft 275 kts 64°
2026-05-04 17:41 51.39208 8.37346 23715 ft 275 kts 64°
2026-05-04 17:42 51.40084 8.40071 23715 ft 275 kts 64°
2026-05-04 17:42 51.40922 8.42825 23708 ft 274 kts 71°
2026-05-04 17:42 51.41326 8.45736 23699 ft 269 kts 89°
2026-05-04 17:42 51.41324 8.48716 23699 ft 267 kts 95°
2026-05-04 17:43 51.41289 8.51699 23701 ft 267 kts 95°
2026-05-04 17:43 51.41259 8.54713 23701 ft 267 kts 95°
2026-05-04 17:43 51.41271 8.57651 23701 ft 268 kts 91°
2026-05-04 17:43 51.41371 8.60638 23701 ft 269 kts 90°
2026-05-04 17:44 51.41464 8.63637 23703 ft 270 kts 91°
2026-05-04 17:44 51.41528 8.66639 23699 ft 270 kts 91°
2026-05-04 17:44 51.41591 8.69644 23699 ft 270 kts 91°
2026-05-04 17:44 51.41660 8.72657 23700 ft 271 kts 91°
2026-05-04 17:45 51.41730 8.75670 23701 ft 271 kts 91°
2026-05-04 17:45 51.41797 8.78687 23702 ft 271 kts 91°
2026-05-04 17:45 51.41862 8.81703 23703 ft 271 kts 91°
2026-05-04 17:45 51.41928 8.84723 23698 ft 271 kts 91°
2026-05-04 17:46 51.41993 8.87746 23700 ft 271 kts 91°
2026-05-04 17:46 51.42058 8.90767 23701 ft 272 kts 91°
2026-05-04 17:46 51.42121 8.93795 23700 ft 272 kts 91°
2026-05-04 17:46 51.42163 8.95835 23701 ft 272 kts 91°
2026-05-04 17:47 51.42245 8.99849 23699 ft 271 kts 91°
2026-05-04 17:47 51.42306 9.02870 23699 ft 271 kts 91°
2026-05-04 17:47 51.42366 9.05888 23696 ft 271 kts 91°
2026-05-04 17:47 51.42425 9.08912 23696 ft 271 kts 91°
2026-05-04 17:48 51.42465 9.10948 23696 ft 271 kts 91°
2026-05-04 17:48 51.42522 9.13974 23697 ft 271 kts 91°
2026-05-04 17:48 51.42581 9.17002 23696 ft 271 kts 91°
2026-05-04 17:48 51.42638 9.20021 23696 ft 271 kts 91°
2026-05-04 17:49 51.42688 9.23053 23694 ft 271 kts 93°
2026-05-04 17:49 51.42417 9.25995 23694 ft 265 kts 111°
2026-05-04 17:49 51.41682 9.28611 23697 ft 258 kts 127°
2026-05-04 17:49 51.40590 9.30854 23699 ft 254 kts 136°
2026-05-04 17:50 51.39448 9.33022 23703 ft 254 kts 135°
2026-05-04 17:50 51.38316 9.35195 23704 ft 254 kts 135°
2026-05-04 17:50 51.37180 9.37367 23704 ft 254 kts 135°
2026-05-04 17:50 51.36042 9.39533 23726 ft 254 kts 135°
2026-05-04 17:51 51.34901 9.41706 23726 ft 255 kts 135°
2026-05-04 17:51 51.33762 9.43876 23726 ft 255 kts 135°
2026-05-04 17:51 51.32620 9.46047 23702 ft 255 kts 135°
2026-05-04 17:51 51.31481 9.48213 23701 ft 255 kts 135°
2026-05-04 17:52 51.30337 9.50385 23700 ft 255 kts 135°
2026-05-04 17:52 51.29196 9.52550 23700 ft 255 kts 135°
2026-05-04 17:52 51.28054 9.54716 23700 ft 255 kts 136°
2026-05-04 17:52 51.26911 9.56878 23697 ft 255 kts 135°
2026-05-04 17:53 51.25769 9.59041 23702 ft 255 kts 135°
2026-05-04 17:53 51.24624 9.61206 23703 ft 255 kts 135°
2026-05-04 17:53 51.23478 9.63370 23711 ft 255 kts 135°
2026-05-04 17:53 51.22330 9.65539 23740 ft 254 kts 135°
2026-05-04 17:54 51.21202 9.67669 23849 ft 249 kts 136°
2026-05-04 17:54 51.20003 9.69593 23951 ft 240 kts 150°
2026-05-04 17:54 51.18621 9.71076 23978 ft 240 kts 152°
2026-05-04 17:54 51.17234 9.72585 23980 ft 243 kts 152°
2026-05-04 17:55 51.15833 9.74115 23985 ft 245 kts 151°
2026-05-04 17:55 51.14436 9.75628 23986 ft 247 kts 151°
2026-05-04 17:55 51.12993 9.77188 23989 ft 248 kts 151°
2026-05-04 17:55 51.11564 9.78736 23987 ft 248 kts 151°
2026-05-04 17:56 51.10135 9.80282 23991 ft 249 kts 151°
2026-05-04 17:56 51.08702 9.81829 23995 ft 249 kts 151°
2026-05-04 17:56 51.07266 9.83380 23992 ft 249 kts 151°
2026-05-04 17:56 51.05833 9.84927 23992 ft 249 kts 151°
2026-05-04 17:57 51.04396 9.86476 23990 ft 250 kts 151°
2026-05-04 17:57 51.02957 9.88026 23993 ft 250 kts 151°
2026-05-04 17:57 51.01518 9.89574 23993 ft 250 kts 151°
2026-05-04 17:57 51.00077 9.91123 23990 ft 250 kts 151°
2026-05-04 17:58 50.98638 9.92671 23993 ft 250 kts 151°
2026-05-04 17:58 50.97201 9.94214 23992 ft 250 kts 151°
2026-05-04 17:58 50.95759 9.95761 23981 ft 250 kts 152°
2026-05-04 17:58 50.94314 9.97310 23981 ft 251 kts 152°
2026-05-04 17:59 50.92865 9.98862 23981 ft 252 kts 152°
2026-05-04 17:59 50.91389 10.00440 23714 ft 263 kts 151°
2026-05-04 17:59 50.88213 10.03829 22747 ft 290 kts 150°
2026-05-04 18:00 50.86517 10.05643 22236 ft 299 kts 150°
2026-05-04 18:00 50.84787 10.07493 21729 ft 296 kts 150°
2026-05-04 18:00 50.83123 10.09278 21251 ft 282 kts 150°
2026-05-04 18:00 50.81536 10.10972 20786 ft 269 kts 151°
2026-05-04 18:01 50.80012 10.12590 20329 ft 259 kts 151°
2026-05-04 18:01 50.78520 10.14173 19874 ft 251 kts 151°
2026-05-04 18:01 50.77090 10.15692 19431 ft 245 kts 151°
2026-05-04 18:02 50.74358 10.18595 18562 ft 225 kts 151°
2026-05-04 18:02 50.73088 10.19941 18107 ft 215 kts 152°
2026-05-04 18:02 50.71880 10.21217 17620 ft 209 kts 151°
2026-05-04 18:02 50.70686 10.22480 17137 ft 204 kts 151°
2026-05-04 18:03 50.69514 10.23720 16663 ft 201 kts 151°
2026-05-04 18:03 50.68359 10.24940 16201 ft 199 kts 151°
2026-05-04 18:03 50.67238 10.26127 15990 ft 185 kts 151°
2026-05-04 18:03 50.66163 10.27262 15985 ft 192 kts 151°
2026-05-04 18:04 50.65022 10.28459 15996 ft 202 kts 150°
2026-05-04 18:04 50.63831 10.29716 16002 ft 210 kts 150°
2026-05-04 18:04 50.61354 10.32331 15999 ft 218 kts 150°
2026-05-04 18:05 50.60089 10.33665 15997 ft 220 kts 150°
2026-05-04 18:05 50.58812 10.35009 15999 ft 222 kts 150°
2026-05-04 18:05 50.57528 10.36360 15999 ft 223 kts 150°
2026-05-04 18:05 50.56239 10.37715 15999 ft 223 kts 150°
2026-05-04 18:06 50.53648 10.40434 15998 ft 224 kts 150°
2026-05-04 18:06 50.52354 10.41794 15999 ft 224 kts 150°
2026-05-04 18:06 50.51060 10.43149 16000 ft 224 kts 150°
2026-05-04 18:07 50.49764 10.44507 15995 ft 224 kts 150°
2026-05-04 18:07 50.48470 10.45861 15996 ft 224 kts 150°
2026-05-04 18:07 50.47154 10.47174 15986 ft 222 kts 157°
2026-05-04 18:07 50.45693 10.47864 15982 ft 219 kts 173°
2026-05-04 18:08 50.44195 10.48297 15987 ft 218 kts 172°
2026-05-04 18:08 50.42701 10.48749 15988 ft 219 kts 172°
2026-05-04 18:08 50.41208 10.49200 15989 ft 219 kts 172°
2026-05-04 18:08 50.39716 10.49646 15985 ft 219 kts 173°
2026-05-04 18:09 50.36722 10.50541 15984 ft 219 kts 173°
2026-05-04 18:09 50.33731 10.51437 15984 ft 219 kts 173°
2026-05-04 18:10 50.32234 10.51884 15980 ft 219 kts 173°
2026-05-04 18:10 50.30738 10.52331 15980 ft 219 kts 173°
2026-05-04 18:10 50.29239 10.52778 15980 ft 219 kts 173°
2026-05-04 18:10 50.27741 10.53225 15939 ft 221 kts 173°
2026-05-04 18:11 50.26201 10.53681 15747 ft 229 kts 172°
2026-05-04 18:11 50.24616 10.54153 15556 ft 234 kts 172°
2026-05-04 18:11 50.23003 10.54634 15367 ft 238 kts 172°
2026-05-04 18:11 50.21380 10.55117 15171 ft 234 kts 172°
2026-05-04 18:12 50.19813 10.55587 14971 ft 225 kts 172°
2026-05-04 18:12 50.18300 10.56037 14771 ft 218 kts 172°
2026-05-04 18:12 50.16822 10.56474 14565 ft 214 kts 172°
2026-05-04 18:12 50.15370 10.56905 14365 ft 211 kts 173°
2026-05-04 18:13 50.13930 10.57331 14174 ft 210 kts 173°
2026-05-04 18:13 50.12500 10.57754 13976 ft 208 kts 173°
2026-05-04 18:13 50.09660 10.58594 13575 ft 208 kts 173°
2026-05-04 18:14 50.08233 10.59015 13355 ft 209 kts 173°
2026-05-04 18:14 50.06805 10.59438 13149 ft 209 kts 173°
2026-05-04 18:14 50.05374 10.59861 12938 ft 209 kts 173°
2026-05-04 18:15 50.02518 10.60703 12526 ft 208 kts 173°
2026-05-04 18:15 49.99670 10.61544 12116 ft 208 kts 173°
2026-05-04 18:15 49.98250 10.61962 11912 ft 207 kts 173°
2026-05-04 18:16 49.96836 10.62378 11699 ft 206 kts 173°
2026-05-04 18:16 49.95438 10.62811 11557 ft 204 kts 168°
2026-05-04 18:16 49.94100 10.63510 11452 ft 201 kts 164°
2026-05-04 18:17 49.91506 10.64901 11292 ft 194 kts 165°
2026-05-04 18:17 49.90234 10.65573 11213 ft 192 kts 165°
2026-05-04 18:17 49.87692 10.66916 11064 ft 198 kts 165°
2026-05-04 18:18 49.86367 10.67617 10991 ft 204 kts 165°
2026-05-04 18:18 49.85024 10.68329 10986 ft 204 kts 165°
2026-05-04 18:18 49.83685 10.69037 10984 ft 203 kts 165°
2026-05-04 18:18 49.82346 10.69745 10980 ft 203 kts 165°
2026-05-04 18:19 49.79630 10.70696 10983 ft 199 kts 178°
2026-05-04 18:19 49.78248 10.70917 10981 ft 200 kts 177°
2026-05-04 18:19 49.76873 10.71150 10871 ft 204 kts 176°
2026-05-04 18:20 49.75484 10.71386 10616 ft 198 kts 177°
2026-05-04 18:20 49.74125 10.71614 10370 ft 195 kts 177°
2026-05-04 18:20 49.72770 10.71839 10032 ft 197 kts 176°
2026-05-04 18:20 49.71402 10.72066 9649 ft 198 kts 176°
2026-05-04 18:21 49.70028 10.72296 9258 ft 199 kts 176°
2026-05-04 18:21 49.68652 10.72526 8868 ft 198 kts 176°
2026-05-04 18:21 49.67284 10.72753 8538 ft 196 kts 176°
2026-05-04 18:21 49.65934 10.72980 8281 ft 196 kts 175°
2026-05-04 18:22 49.64637 10.73615 8073 ft 198 kts 153°
2026-05-04 18:22 49.63603 10.75002 7968 ft 197 kts 130°
2026-05-04 18:22 49.62991 10.76887 7968 ft 201 kts 108°
2026-05-04 18:22 49.62764 10.79040 7969 ft 204 kts 101°
2026-05-04 18:23 49.62556 10.81214 7969 ft 205 kts 101°
2026-05-04 18:23 49.62346 10.83394 7969 ft 206 kts 101°
2026-05-04 18:23 49.62138 10.85577 7958 ft 206 kts 101°
2026-05-04 18:23 49.61927 10.87770 7959 ft 206 kts 101°
2026-05-04 18:24 49.61716 10.89953 7961 ft 206 kts 101°
2026-05-04 18:24 49.61501 10.92169 7781 ft 214 kts 101°
2026-05-04 18:24 49.61283 10.94425 7541 ft 215 kts 101°
2026-05-04 18:24 49.61063 10.96698 7176 ft 213 kts 101°
2026-05-04 18:25 49.60845 10.98947 6812 ft 211 kts 100°
2026-05-04 18:25 49.60698 11.00457 6571 ft 210 kts 100°
2026-05-04 18:25 49.60413 11.03374 6195 ft 206 kts 100°
2026-05-04 18:25 49.60197 11.05579 6014 ft 208 kts 100°
2026-05-04 18:26 49.59984 11.07755 6005 ft 202 kts 100°
2026-05-04 18:26 49.59775 11.09881 6000 ft 199 kts 100°
2026-05-04 18:26 49.59635 11.11304 5999 ft 198 kts 99°
2026-05-04 18:26 49.59426 11.13416 5851 ft 202 kts 100°
2026-05-04 18:27 49.59216 11.15546 5603 ft 201 kts 100°
2026-05-04 18:27 49.59006 11.17664 5354 ft 199 kts 99°
2026-05-04 18:27 49.58798 11.19765 5107 ft 197 kts 99°
2026-05-04 18:27 49.58592 11.21842 4860 ft 196 kts 98°
2026-05-04 18:28 49.58389 11.23869 4800 ft 186 kts 98°
2026-05-04 18:28 49.58202 11.25748 4989 ft 170 kts 99°
2026-05-04 18:28 49.58022 11.27549 5004 ft 171 kts 99°
2026-05-04 18:28 49.57840 11.29358 5005 ft 171 kts 98°
2026-05-04 18:29 49.57654 11.31219 5009 ft 180 kts 98°
2026-05-04 18:29 49.57460 11.33153 5017 ft 185 kts 98°
2026-05-04 18:29 49.57261 11.35130 5021 ft 189 kts 98°
2026-05-04 18:29 49.57058 11.37136 5024 ft 190 kts 98°
2026-05-04 18:30 49.56629 11.41158 5022 ft 191 kts 106°
2026-05-04 18:30 49.55870 11.42808 4940 ft 196 kts 142°
2026-05-04 18:30 49.54570 11.43450 4663 ft 202 kts 179°
2026-05-04 18:31 49.53179 11.43115 4392 ft 204 kts 191°
2026-05-04 18:31 49.51805 11.42589 4120 ft 202 kts 194°
2026-05-04 18:31 49.50465 11.42050 4018 ft 194 kts 194°
2026-05-04 18:31 49.49189 11.41532 4009 ft 187 kts 194°
2026-05-04 18:32 49.47947 11.41013 3994 ft 183 kts 199°
2026-05-04 18:32 49.46986 11.39825 4001 ft 180 kts 240°
2026-05-04 18:32 49.46563 11.38034 3994 ft 178 kts 263°
2026-05-04 18:32 49.46816 11.36255 4001 ft 170 kts 299°
2026-05-04 18:33 49.47189 11.34579 4008 ft 167 kts 281°
2026-05-04 18:33 49.47385 11.32828 3983 ft 166 kts 280°
2026-05-04 18:33 49.47574 11.31062 3799 ft 164 kts 280°
2026-05-04 18:33 49.47749 11.29341 3583 ft 161 kts 279°
2026-05-04 18:34 49.47911 11.27658 3374 ft 158 kts 280°
2026-05-04 18:34 49.48076 11.26008 3172 ft 155 kts 279°
2026-05-04 18:34 49.48231 11.24409 2963 ft 148 kts 281°
2026-05-04 18:34 49.48383 11.22876 2776 ft 143 kts 281°
2026-05-04 18:35 49.48528 11.21415 2594 ft 131 kts 282°
2026-05-04 18:35 49.48652 11.20123 2428 ft 116 kts 282°
2026-05-04 18:35 49.48781 11.18860 2281 ft 123 kts 281°
2026-05-04 18:35 49.48895 11.17586 2109 ft 120 kts 281°
2026-05-04 18:36 49.49013 11.16312 1896 ft 121 kts 282°
2026-05-04 18:36 49.49156 11.15043 1785 ft 119 kts 282°
2026-05-04 18:36 49.49283 11.13788 1636 ft 119 kts 279°
2026-05-04 18:36 49.49406 11.12562 1488 ft 112 kts 279°
2026-05-04 18:37 49.49521 11.11387 1359 ft 109 kts 281°
2026-05-04 18:37 49.49628 11.10248 1198 ft 106 kts 281°
2026-05-04 18:37 49.49735 11.09156 1053 ft 96 kts 281°
2026-05-04 18:37 49.49824 11.08291 1040 ft 69 kts 278°
2026-05-04 18:38 49.49868 11.07743 1039 ft 29 kts 269°
2026-05-04 18:38 49.49792 11.07676 1046 ft 13 kts 154°
2026-05-04 18:38 49.49745 11.07712 1048 ft 0 kts 155°
2026-05-04 18:40 49.49722 11.07729 1049 ft 5 kts 153°
2026-05-04 18:40 49.49663 11.07771 1049 ft 13 kts 172°
2026-05-04 18:41 49.49598 11.07750 1050 ft 10 kts 228°
2026-05-04 18:41 49.49602 11.07608 1050 ft 15 kts 279°
2026-05-04 18:41 49.49619 11.07446 1050 ft 15 kts 280°
2026-05-04 18:41 49.49634 11.07290 1050 ft 13 kts 278°
2026-05-04 18:42 49.49600 11.07212 1050 ft 12 kts 189°
2026-05-04 18:42 49.49517 11.07190 1050 ft 9 kts 201°
2026-05-04 18:42 49.49511 11.07083 1050 ft 12 kts 278°
2026-05-04 18:42 49.49521 11.06948 1050 ft 11 kts 258°
2026-05-04 18:43 49.49476 11.06941 1050 ft 7 kts 104°
2026-05-04 18:43 49.49451 11.06965 1050 ft 1 kts 210°
2026-05-04 18:43 49.49448 11.06956 1050 ft 0 kts 269°